Regional Weather Roundup
Issued by NWS Mt. Holly, NJ

Home | Current Version | Previous Version | Text Only | Print | Product List | Glossary On
Versions: 1 2 3 4 5 6 7 8 9 10 11 12 13 14 15 16 17 18 19 20 21 22 23 24 25 26 27 28 29 30 31 32 33 34 35 36 37 38 39 40 41 42 43 44 45 46 47 48 49 50
242
ASUS41 KPHI 251412
RWRPHI

REGIONAL WEATHER ROUNDUP
NATIONAL WEATHER SERVICE MOUNT HOLLY NJ
1000 AM EDT SAT MAR 25 2017

NOTE:  "FAIR" INDICATES FEW OR NO CLOUDS BELOW 12,000 FEET WITH NO
SIGNIFICANT WEATHER AND/OR OBSTRUCTIONS TO VISIBILITY.

 * = STATION DOES NOT REPORT PRECIPITATION (E.G. RAIN, SNOW, ETC.)
        OR FOG.

NJZ015>026-251500-
SOUTHERN NEW JERSEY

CITY           SKY/WX    TMP DP  RH WIND       PRES   REMARKS
POMONA         PTSUNNY   64  47  53 W10       30.17S
WILDWOOD*      CLOUDY    62  49  62 W10       30.21R
MILLVILLE      MOSUNNY   63  50  62 W15       30.18S
WRIGHTSTOWN    CLOUDY    62  48  60 W10       30.14R
MOUNT HOLLY    PTSUNNY   62  46  55 SW9       30.16R
TRENTON        CLOUDY    56  45  66 W3        30.15R

$$
NJZ001>014-251500-
NORTHERN NEW JERSEY

CITY           SKY/WX    TMP DP  RH WIND       PRES   REMARKS
SUSSEX         CLOUDY    43  37  79 NE3       30.16S
ANDOVER*         N/A     45  37  73 CALM      30.15F
MORRISTOWN     CLOUDY    50  37  62 CALM      30.16S
NEWARK         CLOUDY    55  39  54 N7        30.16R
TETERBORO      DRIZZLE   55  38  52 NE6       30.16S
CALDWELL       CLOUDY    51  37  58 CALM      30.16S
SOMERVILLE     CLOUDY    50  39  66 CALM      30.13F
ALLAIRE*       CLOUDY    57  46  66 NW6       30.17R
TOMS RIVER*    CLOUDY    62  49  62 SW9       30.17R

$$
PAZ043-044-047-054-055-060>062-066>071-251500-
EASTERN PENNSYLVANIA

CITY           SKY/WX    TMP DP  RH WIND       PRES   REMARKS
PHILADELPHIA   CLOUDY    58  47  66 SW12      30.17S
NORTH PHILA    CLOUDY    59  47  64 SW8       30.17R
BLUE BELL*     CLOUDY    55  46  71 CALM      30.15F
QUAKERTOWN*    MOSUNNY   59  45  58 SW3       30.15S
PERKASIE*      FAIR      55  41  58 S5        30.16R
POTTSTOWN      CLOUDY    53  41  63 CALM      30.16S
LANCASTER      CLOUDY    54  44  69 CALM      30.15S
COATESVILLE    CLOUDY    59  46  63 SW5G12    30.17S
READING        MOSUNNY   57  44  62 CALM      30.15S
ALLENTOWN      MOSUNNY   54  40  59 CALM      30.13F
MOUNT POCONO   MOSUNNY   48  44  86 SW3       30.13F
HAZLETON       CLOUDY    61  48  63 W3        30.16R
LEHIGHTON      LGT RAIN  45  37  76 CALM      30.14F
WILKES BARRE   CLOUDY    46  39  76 N5        30.14F

$$
DEZALL-MDZ008-012-015-019-020-251500-
DELAWARE AND EASTERN MARYLAND

CITY           SKY/WX    TMP DP  RH WIND       PRES   REMARKS
WILMINGTON     CLOUDY    61  49  64 W6        30.18S
DOVER          CLOUDY    64  53  67 SW15      30.17F
GEORGETOWN     SUNNY     65  49  56 W10G22    30.21S
EASTON         MOSUNNY   61  48  63 SW9       30.24S
ABERDEEN       CLOUDY    58  48  68 W7        30.19S
PATUXENT       PTSUNNY   63  52  67 W13       30.21F
OCEAN CITY     CLOUDY    64  49  57 SW15G22   30.22F
WALLOPS ISLAND MOSUNNY   64  50  60 W15G25    30.24F
CAMBRIDGE      SUNNY     64  50  59 VRB7      30.22S
SALISBURY      MOSUNNY   64  50  60 SW15G29   30.22F

$$
PAZ001-021-NYZ056-072-MDZ011-DCZ001-251500-
OTHER NEARBY LOCATIONS

CITY           SKY/WX    TMP DP  RH WIND       PRES   REMARKS
HARRISBURG     CLOUDY    50  42  74 CALM      30.15S
STATE COLLEGE  MOSUNNY   64  52  63 SW8       30.14S
WILLIAMSPORT   CLOUDY    46  39  76 CALM      30.15R
BINGHAMTON     FOG       37  37 100 N5        30.14R VSB 1/8 WCI  33
NEW YORK CITY  CLOUDY    57  39  51 CALM      30.18S
BALTIMORE      CLOUDY    65  49  56 W8        30.18S
WASHINGTON DC  PTSUNNY   62  50  64 S9        30.21S

$$




USA.gov is the U.S. government's official web portal to all federal, state and local government web resources and services.